STARLINK-1540, 46051

Orbit data source: Space-Track

STARLINK-1540, 46051 is a payload satellite owned by SpaceX/Seattle (US) in LEO that was launched on Fri, 07 Aug 2020 UTC via an FALCON 9 launch vehicle from the Air Force Eastern Test Range (AFETR). Payload-class satellites include a variety of spacecraft equipped with specific instruments for various scientific and technological missions. These include communications satellites like Starlink; space stations such as the ISS; scientific satellites like the Hubble; Earth observation satellites from companies like Planet Labs, Umbra, and HawkEye 360; GPS; miniature CubeSats for education and research; and military/defense satellites.

Loading next visibility...
Identifier
46051, 2020-055AA
Orbit
LEO
Country
Flag of USUS
Related business
Manufacturer
SpaceX/Seattle
Mission
Operational Commercial Communications
Bus & Motor
STARLINK, Unknown motor
Mass
260 kg wet, ~248 kg dry
Launch date (UTC)
2020-08-07 (6 years ago)
Launch vehicle
FALCON 9
Launch site
Air Force Eastern Test Range (AFETR)
Object type
Payload
Rocket body
Debris
Shape & HBR
Box + 1 Pan, 10.1 m
Radar Cross Section
13.562 m², Large (>1 m²)

Expand to show TLE details & history
Last TLE update: 19 hours ago

TLE from 19 hours ago
0 STARLINK-1540
1 46051U 20055AA  26126.61812053  .00007554  00000-0  26678-3 0  9994
2 46051  53.1582 204.7717 0001275  78.8362 281.2782 15.30216403317959
Epoch: 2026-05-06T14:50Z
TLE epoch observation values (Epoch: 2026-05-06T14:50:05.613Z)
Latitude
-0.00004°
Longitude
117.77225°
Altitude
475.895 km
Speed
7.629 km/s
True Right ascension
13h 39m 05s
True Declination
0° 00' 00"
Sunlit
Object was in full shadow at epoch
Visualization orbit readout
Latitude
Unknown
Longitude
Unknown
Altitude
Unknown
Speed
Unknown
Apparent Right ascension
Unknown
Apparent Declination
Unknown
Sunlit
N/A
Visualization observer readout
Local Sidereal Time
18:15:24
Azimuth
Unknown
Elevation
Unknown
Doppler factor
Unknown
Orbital elements
Apogee altitude
476.297 km
Perigee altitude
474.549 km
Semi-major axis
6,853.56 km
Eccentricity
0.00013
Inclination
53.1582°
RAAN
204.7717°
Arg. of periapsis
78.8362°
True anomaly
281.26387°
Mean anomaly
281.2782°
Eccentric anomaly
281.27104°
Mean motion
3.82533 °/min
Orbital period
94.11 mins
BSTAR
0.00026678
Loading maneuver chart data...
Computing Atmospheric mass density...

Documentation

Showing up to 5 results
|